User: anonymous   Login
Location: Clinton NY
(43.0598°N, 75.3602°W)
Time: 22:14:28
(UTC-04:00)
Language:

Iridium 11 - Orbit

View from above orbital plane
View from above orbital plane
View from above satellite
View from above satellite

Ground track
Ground track

The orbit data is extracted from the following two-line orbital elements,

1 25578U 98074B   15239.33901626  .00000219  00000-0  71231-4 0  9995
2 25578 086.4014 171.4389 0002078 080.1970 077.8724 14.34221912882829
Epoch (UTC): 27 August 2015 08:08:11
Eccentricity: 0.0002078
inclination: 86.4014°
perigee height: 776 km
apogee height: 779 km
right ascension of ascending node: 171.4389°
argument of perigee: 80.1970°
revolutions per day: 14.34221912
mean anomaly at epoch: 77.8724°
orbit number at epoch: 88282

The dashed part of the orbit path shows where the satellite is in the earth's shadow,  

DLR